Weather in Safaga

Egypt     26°44′53″N   33°56′24″E
temp.,
°C
wind,
m/s
gust,
m/s
humid.,
%
clouds,
%
prec.,
mm/h
press.,
hPa
HPBL,
m
14 april, wed
wed1423:00+23nnw813380 0.0 1015360
02:00+22nnw711400 0.0 1014426
05:00+21nnw812400 0.0 1015438
08:00+21nnw1012420 0.0 1016510
11:00+23n910460 0.0 1016319
14:00+23n89530 0.0 1013248
17:00+24n68510 0.0 1012153
20:00+23nnw711475 0.0 1013178
15 april, thu
thu1523:00+24nw58404 0.0 1013106
02:00+23nnw58430 0.0 1012136
05:00+22nnw710420 0.0 1012238
08:00+23nnw810410 0.0 1013318
11:00+24nne910520 0.0 1013222
14:00+24nne79560 0.0 1011155
17:00+25n67510 0.0 1010108
20:00+25nw57462 0.0 101080
16 april, fri
fri1623:00+26nw56390 0.0 101065
02:00+25nnw713395 0.0 1009154
05:00+24nnw6104320 0.0 1009140
08:00+25nnw79382 0.0 1011138
11:00+25nne89515 0.0 1011124
14:00+25nne44515 0.0 100966
17:00+27n55435 0.0 100854
20:00+26nw68420 0.0 100976
17 april, sat
sat1723:00+27nnw811380 0.0 1008107
02:00+26nnw913400 0.0 1009174
05:00+24nnw813420 0.0 1009181
08:00+26n79400 0.0 1011117
11:00+26n78460 0.0 1011105
14:00+26nne55490 0.0 101067
17:00+25nne33560 0.0 100930
20:00+26nnw22490 0.0 101011
18 april, sun
sun1823:00+25nnw23560 0.0 101116
02:00+26nw44430 0.0 101027
05:00+24nnw45480 0.0 101160
08:00+25sse12570 0.0 101432
11:00+25ene44500 0.0 101375
14:00+24ene22590 0.0 1012101
17:00+24ssw11590 0.0 101136
20:00+27ssw33450 0.0 101111